User: anonymous   Login
Location: Lansingburgh
(42.7845°N, 73.6696°W)
Time: 12:44:59
(UTC+00:00)
Language:

SL-14 R/B - Orbit

View from above orbital plane
View from above orbital plane
View from above satellite
View from above satellite

Ground track
Ground track

The orbit data is extracted from the following two-line orbital elements,

1 33505U 09003B   20098.82565640 +.00000117 +00000-0 +53398-5 0  9995
2 33505 082.3920 301.9691 0024964 254.7596 105.0873 15.09915780615555
Epoch (UTC): 07 April 2020 19:48:56
Eccentricity: 0.0024964
inclination: 82.3920°
perigee height: 519 km
apogee height: 554 km
right ascension of ascending node: 301.9691°
argument of perigee: 254.7596°
revolutions per day: 15.09915780
mean anomaly at epoch: 105.0873°
orbit number at epoch: 61555

The dashed part of the orbit path shows where the satellite is in the earth's shadow,  

DLR